Clarksburg, WV

9:14 AM EDT on April 26, 2018 (GMT -0400)
Benedum

Weather History for KCKB - April, 2013

Change the Weather History Date:

Thursday, April 11, 2013

  Actual Average Record
Temperature  
Mean Temperature 68 °F 51 °F  
Max Temperature 81 °F 63 °F 84 °F (1933)
Min Temperature 55 °F 39 °F 20 °F (1960)
Degree Days  
Heating Degree Days 0 14  
Month to date heating degree days 173  
Since 1 July heating degree days 4855  
Cooling Degree Days 3 0  
Month to date cooling degree days 0  
Year to date cooling degree days 1  
Growing Degree Days 18 (Base 50)    
Moisture  
Dew Point 51 °F    
Average Humidity 55    
Maximum Humidity 84    
Minimum Humidity 33    
Precipitation  
Precipitation 0.00 in 0.12 in 1.03 in (1965)
Month to date precipitation 1.32  
Year to date precipitation 11.91  
Sea Level Pressure  
Sea Level Pressure 29.74 in    
Wind  
Wind Speed 5 mph (South)    
Max Wind Speed 12 mph    
Max Gust Speed 17 mph    
Visibility 10 miles    
Events      
T = Trace of Precipitation, MM = Missing Value Source: NWS Daily Summary

Daily Weather History Graph

Daily Weather History Graph

Search for Another Location

Airport or City:

Astronomy

Apr. 11, 2013 Rise Set
Actual Time 6:49 AM EDT 7:54 PM EDT
Civil Twilight 6:22 AM EDT 8:22 PM EDT
Nautical Twilight 5:49 AM EDT 8:55 PM EDT
Astronomical Twilight 5:15 AM EDT 9:29 PM EDT
Moon 7:20 AM EDT (4/11) 9:27 PM EDT (4/11)
Length of Visible Light 14h 00m
Length of Day
13h 05m
New Moon, 2% of the Moon is Illuminated
Apr 11
New Moon
Apr 18
First Quarter
Apr 25
Full
May 2
Last Quarter
May 9
New

Hourly Weather History & Observations

Time (EDT) Temp. Dew Point Humidity Pressure Visibility Wind Dir Wind Speed Gust Speed Precip Events Conditions
12:53 AM 64.0 °F 52.0 °F 65% 29.86 in 10.0 mi SE 9.2 mph - N/A   Clear
1:53 AM 63.0 °F 51.1 °F 65% 29.85 in 10.0 mi Calm Calm - N/A   Clear
2:53 AM 59.0 °F 51.1 °F 75% 29.83 in 10.0 mi NNE 3.5 mph - N/A   Clear
3:53 AM 57.9 °F 51.1 °F 78% 29.83 in 10.0 mi NNE 8.1 mph - N/A   Clear
4:53 AM 57.9 °F 51.1 °F 78% 29.82 in 10.0 mi Calm Calm - N/A   Clear
5:53 AM 55.0 °F 50.0 °F 83% 29.81 in 10.0 mi Calm Calm - N/A   Clear
6:53 AM 55.9 °F 51.1 °F 84% 29.81 in 10.0 mi Calm Calm - N/A   Partly Cloudy
7:53 AM 59.0 °F 52.0 °F 78% 29.83 in 10.0 mi Calm Calm - N/A   Clear
8:53 AM 62.1 °F 53.1 °F 72% 29.84 in 10.0 mi Calm Calm - N/A   Scattered Clouds
9:53 AM 68.0 °F 53.1 °F 59% 29.83 in 10.0 mi SSW 3.5 mph - N/A   Scattered Clouds
10:53 AM 73.0 °F 53.1 °F 49% 29.82 in 10.0 mi SW 6.9 mph - N/A   Clear
11:53 AM 77.0 °F 53.1 °F 43% 29.81 in 10.0 mi WSW 8.1 mph - N/A   Scattered Clouds
1:53 PM 81.0 °F 52.0 °F 36% 29.76 in 10.0 mi WSW 8.1 mph - N/A   Partly Cloudy
2:53 PM 80.1 °F 51.1 °F 36% 29.74 in 10.0 mi SSW 8.1 mph - N/A   Clear
3:53 PM 79.0 °F 51.1 °F 38% 29.70 in 10.0 mi Variable 3.5 mph - N/A   Clear
4:53 PM 81.0 °F 48.9 °F 33% 29.66 in 10.0 mi Calm Calm - N/A   Clear
5:53 PM 78.1 °F 51.1 °F 39% 29.65 in 10.0 mi SSW 3.5 mph - N/A   Clear
6:53 PM 78.1 °F 48.9 °F 36% 29.64 in 10.0 mi ENE 4.6 mph - N/A   Clear
7:53 PM 75.0 °F 48.9 °F 40% 29.62 in 10.0 mi Calm Calm - N/A   Clear
8:53 PM 72.0 °F 52.0 °F 49% 29.61 in 10.0 mi NNE 3.5 mph - N/A   Clear
9:53 PM 71.1 °F 51.1 °F 49% 29.57 in 10.0 mi ESE 6.9 mph - N/A   Clear
10:53 PM 73.9 °F 48.9 °F 41% 29.56 in 10.0 mi SSE 10.4 mph 17.3 mph N/A   Clear
11:53 PM 75.9 °F 48.9 °F 38% 29.56 in 10.0 mi South 11.5 mph - N/A   Scattered Clouds